Weather History for Olney-Noble, IL

Change the Weather History Date:

Thursday, June 27, 2013

  Actual Average (KEVV) Record (KEVV)
Temperature  
Mean Temperature 82 °F 77 °F  
Max Temperature 93 °F 88 °F 102 °F (1978)
Min Temperature 71 °F 67 °F 54 °F (1979)
Degree Days  
Heating Degree Days 0 0  
Month to date heating degree days 4  
Since 1 June heating degree days 4  
Since 1 July heating degree days 4545  
Cooling Degree Days 17 12  
Month to date cooling degree days 260  
Year to date cooling degree days 395  
Since 1 June cooling degree days 260  
Growing Degree Days 32 (Base 50)    
Moisture  
Dew Point 73 °F    
Average Humidity 76    
Maximum Humidity 100    
Minimum Humidity 46    
Precipitation  
Precipitation 0.00 in 0.11 in 1.31 in (1900)
Month to date precipitation 3.45  
Year to date precipitation 23.69  
Snow  
Snow 0.00 in 0.00 in - ()
Month to date snowfall 0.0  
Since 1 June snowfall 0.0  
Since 1 July snowfall 11.8  
Snow Depth -    
Sea Level Pressure  
Sea Level Pressure 29.81 in    
Wind  
Wind Speed 5 mph (WNW)    
Max Wind Speed 17 mph    
Max Gust Speed 24 mph    
Visibility 8 miles    
Events      
T = Trace of Precipitation, MM = Missing Value Source: NWS Daily Summary

Daily Weather History Graph

Daily Weather History Graph

Search for Another Location

Airport:

Trip Planner

Search our weather history database for the weather conditions in past years. The results will help you decide how hot, cold, wet, or windy it might be!

Date:

Astronomy

Jun. 27, 2013 Rise Set
Actual Time 5:30 AM CDT 8:21 PM CDT
Civil Twilight 4:58 AM CDT 8:53 PM CDT
Nautical Twilight 4:17 AM CDT 9:33 PM CDT
Astronomical Twilight 3:31 AM CDT 10:19 PM CDT
Moon 11:22 PM CDT (6/27) 10:27 AM CDT (6/27)
Length of Visible Light 15h 55m
Length of Day
14h 51m
Waning Gibbous, 76% of the Moon is Illuminated
Jun 27
Waning Gibbous
Jun 29
Last Quarter
Jul 8
New
Jul 15
First Quarter
Jul 22
Full

Hourly Weather History & Observations

Time (CDT) Temp. Heat Index Dew Point Humidity Pressure Visibility Wind Dir Wind Speed Gust Speed Precip Events Conditions
12:15 AM 73.4 °F - 73.4 °F 100% 29.78 in 7.0 mi Calm Calm - N/A   Clear
12:35 AM 73.4 °F - 73.4 °F 100% 29.77 in 7.0 mi Calm Calm - N/A   Clear
12:55 AM 73.4 °F - 73.4 °F 100% 29.79 in 7.0 mi Calm Calm - N/A   Clear
1:15 AM 73.4 °F - 73.4 °F 100% 29.79 in 5.0 mi Calm Calm - N/A   Clear
1:35 AM 73.4 °F - 73.4 °F 100% 29.79 in 4.0 mi Calm Calm - N/A   Clear
1:55 AM 73.4 °F - 73.4 °F 100% 29.80 in 2.5 mi Calm Calm - N/A   Mostly Cloudy
2:15 AM 73.4 °F - 73.4 °F 100% 29.80 in 1.0 mi Calm Calm - N/A   Overcast
2:35 AM 73.4 °F - 73.4 °F 100% 29.80 in 5.0 mi WSW 4.6 mph - N/A   Scattered Clouds
2:55 AM 73.4 °F - 73.4 °F 100% 29.80 in 7.0 mi Calm Calm - N/A   Clear
3:15 AM 73.4 °F - 73.4 °F 100% 29.80 in 7.0 mi Calm Calm - N/A   Clear
3:35 AM 73.4 °F - 73.4 °F 100% 29.80 in 7.0 mi Calm Calm - N/A   Clear
3:55 AM 73.4 °F - 73.4 °F 100% 29.80 in 5.0 mi Calm Calm - N/A   Clear
4:15 AM 73.4 °F - 73.4 °F 100% 29.80 in 3.0 mi Calm Calm - N/A   Clear
4:35 AM 73.4 °F - 73.4 °F 100% 29.79 in 2.5 mi Calm Calm - N/A   Clear
4:55 AM 71.6 °F - 71.6 °F 100% 29.80 in 3.0 mi Calm Calm - N/A   Clear
5:15 AM 71.6 °F - 71.6 °F 100% 29.79 in 3.0 mi Calm Calm - N/A   Clear
5:35 AM 71.6 °F - 71.6 °F 100% 29.80 in 1.5 mi Calm Calm - N/A   Mist
5:55 AM 73.4 °F - 73.4 °F 100% 29.80 in 4.0 mi West 4.6 mph - N/A   Clear
6:15 AM 73.4 °F - 73.4 °F 100% 29.80 in 5.0 mi West 5.8 mph - N/A   Clear
6:35 AM 73.4 °F - 73.4 °F 100% 29.80 in 5.0 mi West 5.8 mph - N/A   Clear
6:55 AM 75.2 °F - 75.2 °F 100% 29.81 in 7.0 mi West 4.6 mph - N/A   Clear
7:15 AM 77.0 °F - 77.0 °F 100% 29.81 in 7.0 mi West 5.8 mph - N/A   Clear
7:35 AM 78.8 °F - 77.0 °F 94% 29.81 in 7.0 mi West 6.9 mph - N/A   Scattered Clouds
7:55 AM 80.6 °F 87.1 °F 77.0 °F 89% 29.82 in 7.0 mi WNW 9.2 mph - N/A   Clear
8:15 AM 80.6 °F 87.1 °F 77.0 °F 89% 29.82 in 7.0 mi WNW 9.2 mph - N/A   Clear
8:35 AM 82.4 °F 92.4 °F 78.8 °F 89% 29.82 in 7.0 mi WNW 8.1 mph - N/A   Scattered Clouds
8:55 AM 82.4 °F 92.4 °F 78.8 °F 89% 29.82 in 7.0 mi WNW 8.1 mph - N/A   Clear
9:15 AM 84.2 °F 96.1 °F 78.8 °F 84% 29.82 in 10.0 mi WNW 10.4 mph - N/A   Clear
9:35 AM 84.2 °F 94.1 °F 77.0 °F 79% 29.82 in 10.0 mi WNW 12.7 mph - N/A   Clear
9:55 AM 87.8 °F 97.6 °F 75.2 °F 66% 29.82 in 10.0 mi WNW 12.7 mph - N/A   Clear
10:15 AM 87.8 °F 95.6 °F 73.4 °F 62% 29.82 in 10.0 mi NW 12.7 mph 17.3 mph N/A   Clear
10:35 AM 87.8 °F 95.6 °F 73.4 °F 62% 29.82 in 10.0 mi WNW 16.1 mph - N/A   Clear
10:55 AM 87.8 °F 95.6 °F 73.4 °F 62% 29.83 in 10.0 mi WNW 15.0 mph 23.0 mph N/A   Clear
11:15 AM 87.8 °F 95.6 °F 73.4 °F 62% 29.83 in 10.0 mi NW 12.7 mph 18.4 mph N/A   Clear
11:35 AM 87.8 °F 95.6 °F 73.4 °F 62% 29.83 in 10.0 mi NW 17.3 mph - N/A   Scattered Clouds
11:55 AM 89.6 °F 98.2 °F 73.4 °F 59% 29.84 in 10.0 mi NW 16.1 mph 24.2 mph N/A   Scattered Clouds
12:15 PM 89.6 °F 98.2 °F 73.4 °F 59% 29.84 in 10.0 mi NNW 13.8 mph 21.9 mph N/A   Scattered Clouds
12:35 PM 89.6 °F 98.2 °F 73.4 °F 59% 29.84 in 10.0 mi NW 12.7 mph 17.3 mph N/A   Scattered Clouds
12:55 PM 89.6 °F 98.2 °F 73.4 °F 59% 29.84 in 10.0 mi NW 9.2 mph 19.6 mph N/A   Scattered Clouds
1:15 PM 91.4 °F 100.1 °F 73.4 °F 55% 29.85 in 10.0 mi NNW 15.0 mph 19.6 mph N/A   Scattered Clouds
1:35 PM 91.4 °F 100.1 °F 73.4 °F 55% 29.85 in 10.0 mi NW 13.8 mph - N/A   Scattered Clouds
1:55 PM 91.4 °F 98.4 °F 71.6 °F 52% 29.85 in 10.0 mi NNW 13.8 mph 18.4 mph N/A   Clear
2:15 PM 91.4 °F 100.1 °F 73.4 °F 55% 29.85 in 10.0 mi NW 13.8 mph 19.6 mph N/A   Clear
2:35 PM 91.4 °F 100.1 °F 73.4 °F 55% 29.84 in 10.0 mi NW 11.5 mph 18.4 mph N/A   Clear
2:55 PM 91.4 °F 98.4 °F 71.6 °F 52% 29.84 in 10.0 mi NW 13.8 mph 21.9 mph N/A   Clear
3:15 PM 91.4 °F 95.4 °F 68.0 °F 46% 29.84 in 10.0 mi NNW 12.7 mph - N/A   Clear
3:35 PM 93.2 °F 98.8 °F 69.8 °F 46% 29.84 in 10.0 mi NW 13.8 mph - N/A   Clear
3:55 PM 91.4 °F 95.4 °F 68.0 °F 46% 29.84 in 10.0 mi NNW 13.8 mph - N/A   Clear
4:15 PM 91.4 °F 98.4 °F 71.6 °F 52% 29.83 in 10.0 mi WNW 9.2 mph - N/A   Clear
4:35 PM 89.6 °F 96.2 °F 71.6 °F 55% 29.83 in 10.0 mi NW 8.1 mph - N/A   Clear
4:55 PM 89.6 °F 98.2 °F 73.4 °F 59% 29.82 in 10.0 mi WNW 6.9 mph - N/A   Clear
5:15 PM 89.6 °F 96.2 °F 71.6 °F 55% 29.82 in 10.0 mi West 5.8 mph - N/A   Clear
5:35 PM 91.4 °F 98.4 °F 71.6 °F 52% 29.81 in 7.0 mi WNW 10.4 mph - N/A   Clear
5:55 PM 89.6 °F 94.7 °F 69.8 °F 52% 29.81 in 10.0 mi WNW 11.5 mph - N/A   Clear
6:15 PM 91.4 °F 98.4 °F 71.6 °F 52% 29.81 in 10.0 mi West 9.2 mph - N/A   Clear
6:55 PM 89.6 °F 96.2 °F 71.6 °F 55% 29.79 in 10.0 mi West 5.8 mph - N/A   Clear
7:15 PM 87.8 °F 93.8 °F 71.6 °F 58% 29.77 in 10.0 mi WSW 4.6 mph - N/A   Clear
7:35 PM 87.8 °F 92.6 °F 69.8 °F 55% 29.77 in 10.0 mi North - - N/A   Clear
7:55 PM 84.2 °F 88.4 °F 69.8 °F 62% 29.76 in 10.0 mi West 5.8 mph - N/A   Clear
8:15 PM 82.4 °F 86.3 °F 69.8 °F 66% 29.77 in 10.0 mi West 4.6 mph - N/A   Clear
8:35 PM 80.6 °F 84.6 °F 71.6 °F 74% 29.78 in 10.0 mi West 5.8 mph - N/A   Clear
8:55 PM 80.6 °F 83.9 °F 69.8 °F 70% 29.78 in 10.0 mi West 3.5 mph - N/A   Clear
9:15 PM 80.6 °F 84.6 °F 71.6 °F 74% 29.79 in 10.0 mi Calm Calm - N/A   Clear
9:35 PM 77.0 °F - 71.6 °F 83% 29.79 in 10.0 mi Calm Calm - N/A   Clear
9:55 PM 78.8 °F - 71.6 °F 78% 29.80 in 10.0 mi West 4.6 mph - N/A   Clear
10:15 PM 78.8 °F - 71.6 °F 78% 29.80 in 10.0 mi West 6.9 mph - N/A   Clear
10:35 PM 78.8 °F - 71.6 °F 78% 29.81 in 10.0 mi WSW 5.8 mph - N/A   Clear
10:55 PM 78.8 °F - 71.6 °F 78% 29.81 in 10.0 mi West 6.9 mph - N/A   Clear
11:15 PM 78.8 °F - 71.6 °F 78% 29.82 in 10.0 mi West 6.9 mph - N/A   Clear
11:35 PM 77.0 °F - 71.6 °F 83% 29.82 in 10.0 mi West 6.9 mph - N/A   Clear
11:55 PM 77.0 °F - 71.6 °F 83% 29.82 in 10.0 mi West 8.1 mph - N/A   Clear